Precipitable_Water
0.46 0.47 0.47 0.47 0.46 0.47 0.45 0.42 0.38 0.34 0.33 0.33 0.34 0.40 0.45 0.51 0.54 0.56 0.62 0.65 0.67 0.70 0.72 0.73 0.73 0.72 0.72 0.72 0.72 0.73 0.74 0.73 0.75 0.78 0.80 0.80 0.87 1.03 1.13 1.22 1.32 1.44 1.50
0.43 0.42 0.42 0.40 0.38 0.40 0.36 0.33 0.31 0.28 0.28 0.27 0.25 0.31 0.39 0.46 0.52 0.57 0.60 0.63 0.66 0.69 0.71 0.73 0.75 0.75 0.76 0.77 0.78 0.77 0.76 0.75 0.76 0.77 0.79 0.80 0.82 0.82 0.87 0.99 1.10 1.18 1.27
0.37 0.36 0.34 0.31 0.28 0.27 0.23 0.20 0.20 0.21 0.21 0.23 0.22 0.27 0.38 0.45 0.51 0.53 0.56 0.57 0.58 0.61 0.63 0.66 0.67 0.68 0.70 0.72 0.74 0.75 0.75 0.76 0.77 0.78 0.76 0.74 0.76 0.79 0.80 0.80 0.85 0.96 1.07
0.36 0.32 0.27 0.24 0.23 0.21 0.20 0.18 0.18 0.18 0.19 0.19 0.20 0.27 0.36 0.43 0.47 0.49 0.52 0.54 0.53 0.53 0.54 0.56 0.59 0.64 0.66 0.67 0.71 0.74 0.75 0.75 0.76 0.78 0.80 0.84 0.83 0.82 0.81 0.80 0.79 0.78 0.80
0.36 0.30 0.26 0.23 0.22 0.21 0.20 0.19 0.19 0.20 0.20 0.20 0.22 0.30 0.39 0.46 0.49 0.52 0.52 0.54 0.55 0.52 0.49 0.50 0.50 0.52 0.57 0.60 0.64 0.68 0.72 0.75 0.80 0.83 0.86 0.89 0.89 0.92 0.89 0.87 0.86 0.86 0.88
0.38 0.33 0.27 0.24 0.23 0.22 0.22 0.22 0.21 0.22 0.23 0.22 0.22 0.31 0.39 0.48 0.50 0.50 0.52 0.52 0.51 0.48 0.47 0.47 0.46 0.46 0.49 0.52 0.55 0.59 0.64 0.70 0.78 0.89 0.88 0.92 0.93 0.93 0.94 0.97 0.97 0.92 0.89
0.42 0.38 0.31 0.27 0.27 0.25 0.26 0.26 0.26 0.25 0.25 0.27 0.23 0.24 0.35 0.43 0.46 0.47 0.48 0.48 0.42 0.40 0.40 0.39 0.41 0.44 0.45 0.47 0.49 0.51 0.55 0.61 0.69 0.81 0.88 0.89 0.88 0.88 0.89 0.91 0.94 0.96 0.94
0.46 0.43 0.38 0.33 0.31 0.30 0.29 0.30 0.30 0.29 0.29 0.31 0.26 0.25 0.20 0.26 0.38 0.42 0.40 0.36 0.37 0.42 0.39 0.35 0.34 0.34 0.36 0.38 0.39 0.38 0.42 0.47 0.58 0.68 0.77 0.82 0.80 0.80 0.82 0.87 0.91 0.94 0.92
0.50 0.48 0.46 0.42 0.38 0.36 0.33 0.33 0.33 0.33 0.31 0.34 0.35 0.29 0.22 0.20 0.25 0.32 0.41 0.43 0.40 0.37 0.32 0.34 0.33 0.32 0.33 0.34 0.35 0.34 0.35 0.38 0.44 0.56 0.66 0.73 0.73 0.75 0.77 0.80 0.89 0.89 0.88
0.51 0.52 0.51 0.50 0.48 0.44 0.41 0.39 0.38 0.37 0.37 0.35 0.38 0.39 0.37 0.35 0.27 0.24 0.30 0.34 0.34 0.31 0.33 0.37 0.36 0.38 0.37 0.37 0.37 0.37 0.37 0.40 0.44 0.47 0.53 0.59 0.61 0.64 0.68 0.71 0.77 0.78 0.80
0.52 0.53 0.52 0.52 0.52 0.51 0.47 0.45 0.44 0.44 0.45 0.44 0.45 0.45 0.46 0.46 0.46 0.40 0.35 0.37 0.38 0.35 0.35 0.36 0.38 0.40 0.40 0.40 0.40 0.42 0.41 0.43 0.47 0.50 0.52 0.53 0.51 0.47 0.47 0.52 0.61 0.65 0.69
0.56 0.56 0.55 0.54 0.55 0.56 0.51 0.50 0.51 0.50 0.49 0.49 0.49 0.49 0.47 0.44 0.43 0.42 0.40 0.39 0.36 0.38 0.37 0.38 0.43 0.43 0.44 0.44 0.43 0.45 0.43 0.44 0.46 0.48 0.52 0.53 0.49 0.44 0.42 0.43 0.43 0.44 0.50
0.57 0.59 0.60 0.60 0.62 0.61 0.59 0.59 0.58 0.56 0.54 0.52 0.51 0.50 0.51 0.50 0.51 0.50 0.48 0.45 0.43 0.45 0.44 0.46 0.47 0.47 0.46 0.44 0.43 0.42 0.39 0.38 0.40 0.41 0.42 0.45 0.43 0.41 0.41 0.42 0.42 0.41 0.40
0.63 0.66 0.65 0.65 0.62 0.62 0.62 0.61 0.59 0.58 0.56 0.54 0.52 0.52 0.51 0.52 0.52 0.52 0.49 0.45 0.41 0.42 0.42 0.38 0.42 0.41 0.38 0.37 0.36 0.35 0.33 0.32 0.34 0.36 0.36 0.38 0.39 0.38 0.39 0.40 0.41 0.39 0.38
0.61 0.61 0.62 0.61 0.62 0.62 0.62 0.61 0.58 0.56 0.56 0.55 0.54 0.52 0.48 0.46 0.45 0.44 0.43 0.42 0.37 0.30 0.31 0.36 0.33 0.37 0.37 0.36 0.36 0.35 0.33 0.32 0.34 0.34 0.34 0.35 0.36 0.37 0.37 0.37 0.37 0.38 0.37
0.57 0.56 0.56 0.56 0.57 0.58 0.58 0.58 0.56 0.55 0.52 0.51 0.48 0.45 0.44 0.43 0.43 0.42 0.42 0.41 0.41 0.37 0.32 0.40 0.39 0.38 0.36 0.35 0.36 0.34 0.32 0.31 0.31 0.32 0.33 0.33 0.35 0.38 0.37 0.36 0.36 0.36 0.36
0.45 0.45 0.48 0.49 0.50 0.49 0.50 0.48 0.47 0.46 0.44 0.44 0.45 0.44 0.43 0.44 0.42 0.40 0.40 0.38 0.37 0.38 0.33 0.37 0.42 0.42 0.37 0.33 0.32 0.32 0.30 0.29 0.29 0.30 0.32 0.35 0.36 0.39 0.37 0.37 0.36 0.37 0.36
0.38 0.38 0.37 0.36 0.35 0.34 0.36 0.36 0.36 0.38 0.39 0.40 0.41 0.42 0.41 0.42 0.40 0.40 0.38 0.35 0.35 0.36 0.34 0.31 0.36 0.40 0.38 0.35 0.32 0.29 0.28 0.30 0.30 0.30 0.33 0.36 0.36 0.38 0.38 0.37 0.36 0.36 0.36
0.40 0.38 0.34 0.28 0.25 0.24 0.25 0.26 0.27 0.29 0.31 0.32 0.33 0.34 0.35 0.37 0.37 0.37 0.38 0.36 0.35 0.36 0.37 0.34 0.33 0.38 0.40 0.39 0.34 0.31 0.29 0.29 0.30 0.31 0.33 0.34 0.35 0.37 0.37 0.36 0.34 0.35 0.35
0.36 0.32 0.30 0.29 0.28 0.28 0.28 0.26 0.25 0.23 0.22 0.22 0.24 0.27 0.29 0.31 0.33 0.36 0.37 0.37 0.36 0.35 0.35 0.34 0.33 0.33 0.38 0.40 0.36 0.30 0.27 0.29 0.28 0.31 0.34 0.36 0.36 0.36 0.35 0.33 0.33 0.33 0.31
0.31 0.31 0.30 0.29 0.29 0.28 0.27 0.26 0.26 0.26 0.25 0.23 0.22 0.22 0.23 0.26 0.30 0.34 0.36 0.37 0.37 0.35 0.34 0.33 0.33 0.32 0.35 0.37 0.33 0.32 0.29 0.29 0.29 0.32 0.33 0.35 0.36 0.36 0.35 0.33 0.31 0.31 0.32
0.29 0.29 0.29 0.30 0.28 0.28 0.27 0.26 0.26 0.26 0.26 0.25 0.23 0.23 0.23 0.24 0.26 0.30 0.36 0.40 0.40 0.36 0.33 0.33 0.32 0.31 0.35 0.38 0.36 0.33 0.31 0.28 0.25 0.35 0.34 0.34 0.37 0.33 0.34 0.34 0.33 0.34 0.33
0.29 0.29 0.29 0.29 0.28 0.28 0.28 0.29 0.29 0.29 0.27 0.26 0.25 0.25 0.23 0.24 0.25 0.26 0.30 0.38 0.42 0.41 0.38 0.35 0.33 0.33 0.36 0.42 0.37 0.35 0.33 0.30 0.29 0.34 0.36 0.33 0.36 0.33 0.35 0.33 0.34 0.34 0.36
0.28 0.29 0.29 0.29 0.28 0.28 0.30 0.31 0.32 0.33 0.32 0.31 0.31 0.30 0.28 0.26 0.26 0.27 0.28 0.31 0.37 0.41 0.42 0.40 0.39 0.38 0.42 0.45 0.42 0.40 0.35 0.33 0.34 0.38 0.41 0.33 0.36 0.32 0.33 0.33 0.35 0.38 0.38
0.28 0.28 0.28 0.28 0.28 0.29 0.31 0.32 0.33 0.33 0.33 0.33 0.35 0.35 0.34 0.31 0.28 0.28 0.31 0.31 0.35 0.39 0.45 0.45 0.44 0.44 0.48 0.49 0.48 0.42 0.36 0.32 0.31 0.36 0.39 0.36 0.35 0.32 0.32 0.32 0.34 0.38 0.37
0.26 0.26 0.26 0.28 0.29 0.29 0.32 0.34 0.35 0.35 0.32 0.33 0.34 0.35 0.35 0.34 0.33 0.31 0.32 0.33 0.34 0.37 0.42 0.43 0.45 0.47 0.50 0.49 0.47 0.44 0.39 0.35 0.35 0.35 0.39 0.35 0.34 0.32 0.29 0.33 0.32 0.32 0.32
Wind_Speed
21 19 17 15 14 15 16 15 13 14 13 13 12 12 12 12 12 12 11 11 11 11 12 12 13 14 14 15 16 16 17 19 21 22 23 25 26 27 28 30 31 32 34
18 15 12 12 13 14 13 13 13 13 12 12 12 12 12 12 11 11 11 11 11 11 12 12 13 14 14 15 16 17 18 19 20 22 23 24 25 26 28 28 29 31 33
16 14 12 12 13 12 12 13 13 13 12 13 13 13 12 12 11 11 11 12 12 13 13 13 14 14 15 16 17 17 18 19 20 22 24 25 26 28 29 30 31 31 32
14 13 12 12 12 12 13 13 13 13 13 14 14 13 13 13 12 12 13 13 14 14 14 15 16 16 17 17 18 19 20 21 22 22 23 24 25 26 27 29 30 32 33
14 13 13 12 13 13 14 14 14 14 15 16 15 15 14 14 14 14 15 15 15 16 16 17 17 18 18 19 20 20 21 22 23 24 24 24 24 24 25 27 28 30 31
15 15 14 14 14 15 15 15 15 16 16 18 17 16 16 16 16 16 17 17 18 18 19 20 20 21 21 22 22 23 23 24 24 25 25 25 24 24 24 24 25 26 28
17 16 16 16 16 16 17 17 17 17 18 19 18 18 17 18 18 19 20 20 21 21 22 22 23 24 24 24 25 26 26 26 27 27 27 27 26 26 26 26 27 27 28
17 17 17 17 17 18 18 18 19 19 19 20 19 19 19 20 20 22 23 23 23 24 24 25 26 26 27 27 27 28 29 29 29 30 30 30 29 29 29 29 29 29 29
18 18 18 18 19 19 19 20 20 20 20 20 21 20 21 21 24 23 24 25 26 27 28 28 28 28 28 29 29 29 30 31 31 32 32 32 31 31 31 31 31 30 30
20 20 20 21 21 21 22 22 22 23 23 23 23 23 24 25 24 25 25 27 29 29 30 30 30 29 30 30 31 31 32 32 33 33 33 33 32 32 32 32 32 32 32
22 22 23 23 23 24 24 25 25 25 25 25 25 25 26 26 27 28 28 28 30 30 31 31 31 31 31 32 33 33 34 35 35 35 35 34 33 32 32 32 33 33 33
23 24 24 25 26 27 27 27 28 28 27 27 27 28 28 28 28 29 30 30 31 31 32 33 32 33 34 35 36 36 37 36 36 36 35 34 33 33 33 33 34 34 34
24 24 25 26 27 28 29 29 29 29 29 29 30 31 31 31 32 32 33 34 33 33 34 35 35 36 36 36 36 37 37 36 35 34 34 34 34 34 34 35 34 35 35
24 25 26 27 29 30 31 31 31 31 32 32 33 34 34 35 35 35 35 35 36 35 35 34 34 35 35 35 36 36 36 36 36 35 35 35 35 35 35 36 36 36 36
25 27 28 29 31 32 33 33 33 34 35 36 37 36 36 35 35 35 35 35 35 35 34 33 35 35 36 38 39 38 38 38 37 37 37 37 36 36 36 36 36 37 37
27 29 30 31 33 33 34 35 36 37 38 37 37 36 36 36 37 37 37 38 38 39 39 37 37 38 39 41 41 40 40 39 38 38 37 37 37 37 37 37 37 37 37
28 29 31 33 34 35 36 37 38 38 38 37 37 38 39 39 39 39 40 41 41 41 43 43 42 42 42 43 42 41 41 40 39 38 38 38 37 37 37 37 38 38 37
31 33 35 36 37 37 38 38 39 38 38 39 40 41 41 42 43 43 43 44 45 45 45 46 45 44 44 44 43 42 41 40 39 38 38 38 37 37 37 38 38 37 36
35 36 37 38 38 39 39 39 40 40 41 42 43 44 45 46 47 47 47 48 48 48 49 49 48 46 45 44 44 43 41 40 39 38 37 37 36 35 36 37 35 33 32
37 38 38 39 40 40 40 41 41 43 44 45 46 47 49 50 51 52 52 52 52 51 51 51 50 48 46 44 43 41 40 38 36 36 35 34 33 34 34 32 32 30 30
39 39 40 39 40 41 41 43 44 45 47 48 50 51 53 54 55 56 55 56 55 54 53 52 50 47 44 41 40 38 36 35 34 33 32 32 32 31 30 29 28 27 27
39 40 40 41 41 42 44 46 47 48 50 52 53 54 55 57 58 59 60 60 59 57 54 51 49 46 43 40 38 36 34 32 31 30 30 31 31 30 28 27 27 27 27
40 40 41 42 44 45 47 48 49 51 52 54 56 57 58 59 60 60 61 62 62 58 55 51 47 44 42 39 37 34 33 32 31 30 30 29 29 28 26 26 25 26 25
41 43 44 45 46 47 49 51 52 53 54 56 57 58 60 61 61 61 61 58 56 55 52 49 46 43 40 37 35 33 32 31 30 29 28 27 26 26 24 24 24 22 21
45 46 46 48 49 51 52 53 54 55 56 58 59 59 60 61 61 59 56 55 52 50 48 47 44 41 38 36 34 31 30 28 27 27 26 26 24 23 23 22 20 20 20
47 48 49 50 52 53 54 54 55 56 58 59 60 59 59 58 57 55 52 49 46 43 41 40 39 37 36 34 32 31 29 27 25 25 24 23 22 22 21 19 18 18 19
Wind_Direction
326 320 314 311 312 313 313 314 316 314 313 312 311 310 309 307 304 300 297 299 299 297 297 296 296 294 292 290 288 287 286 284 282 280 279 277 275 273 271 269 267 265 262
334 334 330 327 323 320 320 319 319 317 315 314 312 309 307 306 305 301 298 299 300 300 299 298 299 297 295 294 293 291 290 288 287 285 283 280 278 275 273 272 270 268 266
335 336 334 331 327 326 323 321 320 317 315 314 310 307 304 302 300 299 297 297 296 298 298 298 299 299 297 295 294 294 294 294 293 290 286 284 281 278 276 274 272 270 268
335 333 333 332 329 327 324 321 317 314 313 313 308 305 301 298 296 296 297 296 295 295 295 296 297 296 296 295 295 295 295 295 294 292 290 289 286 282 279 277 275 272 269
328 328 328 327 324 323 322 318 314 311 309 310 305 301 297 294 293 293 294 295 294 294 293 294 294 296 296 296 295 295 296 296 296 294 294 290 289 285 284 280 278 276 272
318 318 318 318 317 316 316 315 312 310 307 308 302 298 294 291 290 290 290 291 291 291 291 292 292 292 293 293 294 294 294 295 294 296 293 292 288 287 286 285 283 280 276
307 309 309 310 310 310 311 311 309 308 306 307 301 298 291 290 289 288 289 290 290 290 290 290 290 290 291 292 293 293 293 293 293 292 294 290 286 285 284 283 284 283 280
302 306 307 307 307 307 307 308 308 306 303 305 302 297 295 291 289 288 287 288 289 289 289 289 290 289 290 290 292 292 291 291 291 290 290 290 286 284 282 282 283 282 282
297 301 304 305 306 306 306 306 306 305 304 302 303 299 295 293 295 291 288 287 288 290 290 288 288 287 288 289 290 291 291 290 290 289 288 288 286 283 280 279 280 282 283
293 295 299 300 302 303 303 303 302 301 300 300 299 296 294 292 293 292 290 289 289 290 290 288 288 286 287 288 289 290 291 290 290 289 287 286 286 282 280 279 279 280 281
290 292 294 296 298 300 300 300 299 299 298 297 296 295 294 293 291 290 292 291 291 290 290 289 287 286 287 288 289 290 290 290 289 288 287 286 284 281 280 279 279 280 280
291 291 292 294 296 298 299 299 298 297 296 295 295 294 293 293 293 291 291 292 292 291 291 290 286 286 287 288 289 289 290 289 288 287 285 284 282 280 280 279 279 280 280
293 294 294 295 296 297 298 298 298 297 295 295 294 293 292 291 291 291 291 291 291 291 290 288 287 286 286 288 289 289 289 288 287 286 285 283 282 281 280 279 279 279 279
295 296 296 296 297 297 297 297 297 296 295 294 293 292 292 291 290 289 289 290 291 291 291 289 288 286 286 288 290 289 288 287 286 285 284 283 282 281 281 280 279 279 278
296 297 297 298 298 298 297 296 295 294 294 293 293 292 291 291 290 289 289 288 289 292 291 291 289 287 285 287 289 288 287 286 285 284 283 283 282 280 280 280 279 278 278
299 299 299 300 299 299 298 297 295 294 293 293 292 291 291 291 290 289 288 287 286 287 289 291 289 287 286 287 288 287 286 285 284 283 283 283 282 280 280 280 279 278 277
303 303 302 301 301 300 299 298 296 295 294 292 291 291 290 290 290 289 288 287 286 285 286 288 288 287 286 286 286 286 285 285 284 283 283 282 282 280 280 280 280 279 276
303 303 302 301 301 300 299 298 297 296 294 293 292 291 290 290 289 288 287 286 285 284 285 286 287 286 285 285 284 285 284 284 283 282 282 282 281 280 280 281 281 278 274
303 303 302 301 301 300 299 298 297 296 295 294 293 292 291 290 288 287 286 285 284 284 283 284 285 285 284 283 283 283 282 282 282 281 282 282 281 281 282 282 279 275 271
303 303 302 301 301 301 300 299 298 296 296 295 294 293 292 290 289 287 285 284 283 282 281 282 283 283 282 282 281 281 281 280 280 280 281 280 282 283 283 280 276 272 269
303 303 303 302 301 301 300 300 299 297 296 296 295 294 293 291 289 287 285 283 281 280 280 280 280 279 280 279 278 278 277 278 278 279 279 280 283 284 282 278 273 270 267
304 304 303 303 302 302 301 301 300 299 298 298 297 296 294 292 290 288 285 282 279 278 277 277 276 274 275 275 274 274 274 275 277 276 278 282 282 282 279 275 271 269 269
305 304 303 303 303 302 302 301 301 300 299 299 298 297 296 294 292 290 287 283 278 275 272 272 271 270 270 270 270 270 270 271 273 276 279 281 281 280 277 274 269 270 264
305 305 304 304 303 303 303 302 301 300 300 300 300 299 298 297 295 292 288 283 278 273 269 267 266 266 266 266 265 266 267 270 271 274 277 279 278 278 276 273 271 264 256
305 305 305 304 304 304 304 303 302 302 301 301 302 302 301 300 298 293 289 284 278 272 266 261 261 261 261 260 260 261 263 265 269 272 274 277 276 275 275 272 264 256 252
305 305 304 304 305 304 304 303 303 303 302 303 303 303 303 302 300 296 290 284 277 270 262 258 255 254 256 255 255 257 258 261 265 272 273 272 272 274 273 265 257 249 253